Overview Statistics Trail Chart Weather Telemetry Raw packets
 

This is the latest recevied weather packets stored in our database for station/object KL4TQ. If no packets are shown the sender has not sent any weather packets the latest 10 day(s).

<< 40 41 42 43 44 45 46 >>
Time Temp. Humidity Pressure Rain* Wind** Luminosity Snow
1777422968 8.33° C 63% 857 hPa 0 mm - 311 W/m² -
1777422669 8.89° C 54% 857 hPa 0 mm - 335 W/m² -
1777422369 9.44° C 54% 858 hPa 0 mm - 726 W/m² -
1777422069 9.44° C 54% 857 hPa 0 mm - 480 W/m² -
1777421769 8.89° C 53% 857 hPa 0 mm - 318 W/m² -
1777421469 8.89° C 53% 857 hPa 0 mm - 388 W/m² -
1777421168 8.89° C 53% 857 hPa 0 mm - 471 W/m² -
1777420870 9.44° C 52% 857 hPa 0 mm - 470 W/m² -
1777420570 9.44° C 51% 858 hPa 0 mm - 607 W/m² -
1777420268 9.44° C 51% 857 hPa 0 mm - 429 W/m² -
1777419968 9.44° C 51% 857 hPa 0 mm - 332 W/m² -
1777419669 9.44° C 49% 857 hPa 0 mm - 273 W/m² -
1777419369 10° C 47% 857 hPa 0 mm - 319 W/m² -
1777419068 10° C 47% 858 hPa 0 mm - 490 W/m² -
1777418770 10° C 47% 857 hPa 0 mm - 381 W/m² -
1777418468 10° C 48% 858 hPa 0 mm - 382 W/m² -
1777418169 10° C 47% 858 hPa 0 mm - 404 W/m² -
1777417869 10° C 47% 858 hPa 0 mm - 431 W/m² -
1777417569 10° C 46% 858 hPa 0 mm - 435 W/m² -
1777417268 10.56° C 45% 858 hPa 0 mm - 470 W/m² -
1777416970 10.56° C 45% 858 hPa 0 mm - 885 W/m² -
1777416668 10° C 44% 858 hPa 0 mm - 779 W/m² -
1777416369 10° C 46% 858 hPa 0 mm - 587 W/m² -
1777416068 10° C 47% 858 hPa 0 mm - 444 W/m² -
1777415768 10° C 47% 858 hPa 0 mm - 487 W/m² -

* Rain latest hour (hover to see other rain measurements)
** Current wind speed in m/s (hover to see current wind gust speed)